Location: Burzi?i
(45.0869°N, 16.0577°E)
Time: 12:16:45
(UTC+00:00)

ATLAS 5 CENTAUR R/B - Pass Details

Date: 29 October 2020
Orbit: 531 x 1127 km, 63.4° (Epoch: 22 November)

Event Time Altitude Azimuth Distance (km) Brightness Sun altitude
Rises 16:25:03 0° 289° (WNW) 2,836 6.1 -7.2°
Reaches altitude 10° 16:28:48 10° 324° (NW) 2,049 4.6 -7.8°
Maximum altitude 16:30:26 12° 344° (NNW) 1,996 4.2 -8.1°
Drops below altitude 10° 16:32:08 10° 5° (N) 2,167 4.2 -8.4°
Enters shadow 16:35:59 - 35° (NE) 3,111 4.7 -9.1°
